Location: Unspecified
(0.0000°N, 0.0000°E)
Time: 23:12:58
(UTC+01:00)

NOAA 12 - Pass Details

Date: 19 June 2018
Orbit: 796 x 815 km, 98.5° (Epoch: 16 November)

Event Time Altitude Azimuth Distance (km) Brightness Sun altitude
Rises 20:56:21 0° 173° (S) 3,304 7.0 -12.6°
Reaches altitude 10° 20:58:42 10° 176° (S) 2,375 6.3 -13.1°
Maximum altitude 21:03:54 66° 257° (WSW) 874 4.5 -14.3°
Drops below altitude 10° 21:09:06 10° 339° (NNW) 2,377 7.2 -15.5°
Sets 21:11:27 0° 342° (NNW) 3,308 7.9 -16.0°
